Location: Kawakawa
(35.3830°S, 174.0670°E)
Time: 18:24:30
(UTC+12:00)

ISS - Pass Details

Date: 04 July 2022
Orbit: 412 x 420 km, 51.6° (Epoch: 13 August)

Event Time Altitude Azimuth Distance (km) Brightness Sun altitude
Rises 18:01:11 0° 212° (SSW) 2,387 0.2 -7.9°
Maximum altitude 18:05:36 10° 159° (SSE) 1,516 -1.3 -8.7°
Enters shadow 18:06:38 - 142° (SE) 1,574 -1.4 -8.9°
